Skip Page Navigation
NASA JPL Caltech
NASA Logo - Jet Propulsion Laboratory + View the NASA Portal
+ Near-Earth Object (NEO) Program
Search JPL
JPL Home Earth Solar System Stars & Galaxies Technology
JPL Solar System Dynamics
BODIES ORBITS EPHEMERIDES TOOLS PHYSICAL DATA DISCOVERY FAQ SITE MAP
JPL Small-Body Database Browser
Search: [ help ]  
9858 (1991 OL1)
Classification: Outer Main-belt Asteroid          SPK-ID: 2009858
Ephemeris | Orbit Diagram | Orbital Elements | Physical Parameters | Discovery Circumstances | Close-Approach Data ]

[ show orbit diagram ]
Orbital Elements at Epoch 2457000.5 (2014-Dec-09.0) TDB
Reference: JPL 10 (heliocentric ecliptic J2000)
 Element Value Uncertainty (1-sigma)   Units 
e .1860327648528454 7.1677e-08  
a 3.217347089467818 3.4808e-08 AU
q 2.618815114922865 2.4766e-07 AU
i 2.780339280773989 6.2869e-06 deg
node 113.4166010963245 0.00011902 deg
peri 246.0749766454507 0.00012003 deg
M 344.8224344103726 1.6758e-05 deg
tp 2457089.367899976417
(2015-Mar-07.86789998)
9.8774e-05 JED
period 2107.877169272418
5.77
3.4207e-05
9.365e-08
d
yr
n .1707879402310061 2.7716e-09 deg/d
Q 3.815879064012771 4.1283e-08 AU
  Orbit Determination Parameters
   # obs. used (total)      969  
   data-arc span      13747 days (37.64 yr)  
   first obs. used      1977-02-19  
   last obs. used      2014-10-10  
   planetary ephem.      DE431  
   SB-pert. ephem.      SB431-BIG16  
   condition code      0  
   fit RMS      .53807  
   data source      ORB  
   producer      Otto Matic  
   solution date      2014-Nov-10 13:10:41  

Additional Information
 Earth MOID = 1.61711 AU 
 T_jup = 3.161 
[ show covariance matrix ]

Ephemeris | Orbit Diagram | Orbital Elements | Physical Parameters | Discovery Circumstances | Close-Approach Data ]

Physical Parameter Table
Parameter Symbol Value Units Sigma Reference Notes
absolute magnitude H 13.2 mag n/a MPO302126  

9858 (1991 OL1)          Discovered 1991-Jul-18 by Debehogne, H. at La Silla (809)
Reference: 19990106/Numbers.arcLast Updated: 2004-04-19

[ show close-approach data ]
Alternate Designations
 1991 OL1 = 1977 DH1 = 1986 TK13 = 1992 WJ4 
Ephemeris | Orbit Diagram | Orbital Elements | Physical Parameters | Discovery Circumstances | Close-Approach Data ]
ABOUT SSD CREDITS/AWARDS PRIVACY/COPYRIGHT GLOSSARY LINKS
FirstGov 2014-Nov-24 20:14 UT
(server date/time)  
NASA Home Page
Site Manager:   Donald K. Yeomans
Webmaster  Alan B. Chamberlin